DMSP 5D-2 F13 DEB, 40434

Orbit data source: Space-Track

DMSP 5D-2 F13 DEB, 40434 is space debris in SSO originally from a launch on Fri, 24 Mar 1995 UTC launched from the Air Force Western Test Range (AFWTR). Debris objects in space refer to the collection of defunct objects orbiting the Earth. Examples of debris include non-operational satellites, rocket bodies, and fragments generated from explosions, collisions, or faulty payload assembly.

Loading next visibility...
Identifier
40434, 1995-015AL
Orbit
SSO
Country
Flag of USUS
Related business
Manufacturer
Unknown
Mission
Spacecraft
Bus & Motor
Unknown
Mass
Unknown
Launch date (UTC)
1995-03-24 (31 years ago)
Launch vehicle
Unknown
Launch site
Air Force Western Test Range (AFWTR)
Object type
Payload
Rocket body
Debris
Shape & HBR
Unknown shape, 0.1 m
Radar Cross Section
Small (<0.1 m²)

Expand to show TLE details & history
Last TLE update: 14 hours ago

TLE from 14 hours ago
0 DMSP 5D-2 F13 DEB
1 40434U 95015AL  26118.68275549  .00002257  00000-0  10522-2 0  9997
2 40434  99.1185 106.6303 0171409 357.5384   2.4927 14.14056316572364
Epoch: 2026-04-28T16:23Z
TLE epoch observation values (Epoch: 2026-04-28T16:23:10.074Z)
Latitude
-0.00004°
Longitude
4.18377°
Altitude
724.695 km
Speed
7.557 km/s
True Right ascension
07h 06m 31s
True Declination
0° 00' 00"
Sunlit
Object was in daylight at epoch
Visualization orbit readout
Latitude
Unknown
Longitude
Unknown
Altitude
Unknown
Speed
Unknown
Apparent Right ascension
Unknown
Apparent Declination
Unknown
Sunlit
N/A
Visualization observer readout
Local Sidereal Time
13:59:34
Azimuth
Unknown
Elevation
Unknown
Doppler factor
Unknown
Orbital elements
Apogee altitude
966.481 km
Perigee altitude
718.938 km
Semi-major axis
7,220.847 km
Eccentricity
0.01714
Inclination
99.1185°
RAAN
106.6303°
Arg. of periapsis
357.5384°
True anomaly
2.57999°
Mean anomaly
2.4927°
Eccentric anomaly
2.53616°
Mean motion
3.53721 °/min
Orbital period
101.78 mins
BSTAR
0.0010522
Loading maneuver chart data...
Computing Atmospheric mass density...

Documentation

Showing up to 5 results
|